This demonstration page uses our WeatherBlox Daily Observations layout. Learn more.

Left ArrowRight Arrow

39.92423, -83.80882

Hourly Observations for September 6, 2015

Temp ( °F °C ) Dew Point ( °F °C ) Humidity (%) Winds ( mph kmh ) Pressure ( in mb ) Visibility ( mi km ) Precip ( " mm )
12:58 am 00:58 Clear 70 21.3 68 19.8 91 91 NNW 3 6 30.12 1020 10 16.0934 0 0
1:58 am 01:58 Clear 70 21 68 20.2 95 95 NNE 2 4 30.11 1020 10 16.0934 0 0
2:28 am 02:28 Clear 68 20 68 20 100 100 N 2 4 30.09 1019 9 14.48406 0 0
2:48 am 02:48 Clear 68 20 68 20 100 100 NNE 3 6 30.09 1019 10 16.0934 0 0
2:58 am 02:58 Clear 69 20.3 68 19.8 97 97 N 2 4 30.11 1020 10 16.0934 0 0
3:28 am 03:28 Clear with Mist and Fog 68 20 68 20 100 100 NNE 2 4 30.09 1019 6 9.65604 0 0
3:48 am 03:48 Clear 66 19 66 19 100 100 NNE 3 6 30.09 1019 10 16.0934 0 0
3:58 am 03:58 Clear 67 19.4 67 19.4 100 100 NE 2 4 30.1 1019 10 16.0934 0 0
4:08 am 04:08 Clear 66 19 66 19 100 100 NE 3 6 30.09 1019 9 14.48406 0 0
4:18 am 04:18 Clear 66 19 66 19 100 100 N 1 2 30.09 1019 10 16.0934 0 0
4:58 am 04:58 Clear 67 19.2 67 19.2 100 100 ENE 2 4 30.11 1020 10 16.0934 0 0
5:58 am 05:58 Clear 65 18.5 65 18.4 99 99 Calm 30.12 1020 10 16.0934 0 0
6:58 am 06:58 Clear 65 18.4 65 18.4 100 100 Calm 30.12 1020 10 16.0934 0 0
7:58 am 07:58 Sunny 67 19.3 66 18.7 96 96 NNE 2 4 30.14 1021 10 16.0934 0 0
8:58 am 08:58 Sunny 71 21.7 67 19.5 87 87 ENE 2 4 30.14 1021 10 16.0934 0 0
9:58 am 09:58 Sunny 76 24.4 68 20.1 77 77 SE 3 6 30.14 1021 10 16.0934 0 0.0254
10:58 am 10:58 Sunny 81 27 69 20.7 68 68 SSW 6 9 30.15 1021 10 16.0934 0 0.0254
11:58 am 11:58 Sunny 84 28.7 70 20.9 63 63 VRB 3 6 30.15 1021 10 16.0934 0 0.0254
12:58 pm 12:58 Sunny 86 29.8 70 21.3 60 60 SW 3 6 30.14 1021 10 16.0934 0 0.0254
1:58 pm 13:58 Sunny 87 30.6 69 20.6 55 55 VRB 7 11 30.13 1020 10 16.0934 0 0
1:59 pm 13:59 Mostly Sunny 88 31 70 21 55 55 SW 6 9 30.09 1019 10 16.0934 0 0
2:58 pm 14:58 Partly Cloudy with Drizzle 86 30 66 19 52 52 VRB 5 7 30.12 1020 10 16.0934 0 0.0254
3:58 pm 15:58 Sunny 89 31.6 66 18.7 46 46 W 6 9 30.1 1019 10 16.0934 0 0.0254
4:58 pm 16:58 Sunny 90 32 66 18.9 46 46 S 3 6 30.08 1019 10 16.0934 0 0.0254
5:58 pm 17:58 Sunny 89 31.8 64 17.5 42 42 VRB 1 2 30.07 1018 10 16.0934 0 0
6:58 pm 18:58 Sunny 87 30.6 67 19.3 51 51 SE 8 13 30.07 1018 10 16.0934 0 0.0254
7:58 pm 19:58 Sunny 83 28.5 67 19.6 59 59 SSE 6 9 30.05 1018 10 16.0934 0 0
8:58 pm 20:58 Clear 80 26.5 69 20.7 71 71 SE 6 9 30.06 1018 10 16.0934 0 0
9:58 pm 21:58 Clear 78 25.5 68 20.1 72 72 SSE 5 7 30.08 1019 10 16.0934 0 0
10:58 pm 22:58 Clear 76 24.6 68 19.8 75 75 SSE 3 6 30.08 1019 10 16.0934 0 0
11:58 pm 23:58 Clear 75 23.8 67 19.7 78 78 Calm 30.08 1019 10 16.0934 0 0

Powered by AerisWeather